User: anonymous   Login
Location: Laguna de la Cañada del Gallo
(40.3974°N, 5.2096°W)
Time: 16:51:10
(UTC+00:00)
Language:

Ariane Rocket - Orbit

View from above orbital plane
View from above orbital plane
View from above satellite
View from above satellite

Ground track
Ground track

The orbit data is extracted from the following two-line orbital elements,

1 23561U 95021B   24170.80335950  .00000403  00000-0  14525-3 0  9998
2 23561  98.5272 237.2472 0006187 215.3456 254.9915 14.38880634528776
Epoch (UTC): 18 June 2024 19:16:50
Eccentricity: 0.0006187
inclination: 98.5272°
perigee height: 758 km
apogee height: 766 km
right ascension of ascending node: 237.2472°
argument of perigee: 215.3456°
revolutions per day: 14.38880634
mean anomaly at epoch: 254.9915°
orbit number at epoch: 52877

The dashed part of the orbit path shows where the satellite is in the earth's shadow,  

DLR